Peru, IN

5:38 PM EDT on May 25, 2017 (GMT -0400)
Grissom Air Reserve Base

Weather History for KGUS - July, 2013

Change the Weather History Date:

Tuesday, July 23, 2013

  Actual Average Record
Temperature  
Mean Temperature 74 °F -  
Max Temperature 83 °F 81 °F 95 °F (1999)
Min Temperature 60 °F 64 °F 55 °F (2000)
Cooling Degree Days 8    
Growing Degree Days 24 (Base 50)    
Moisture  
Dew Point 66 °F    
Average Humidity 79    
Maximum Humidity 100    
Minimum Humidity 58    
Precipitation  
Precipitation 0.00 in - - ()
Sea Level Pressure  
Sea Level Pressure 29.80 in    
Wind  
Wind Speed 9 mph (WNW)    
Max Wind Speed 18 mph    
Max Gust Speed 25 mph    
Visibility 10 miles    
Events      
Averages and records for this station are not official NWS values.
T = Trace of Precipitation, MM = Missing Value Source: NWS Daily Summary

Daily Weather History Graph

Daily Weather History Graph

Search for Another Location

Airport or City:

Trip Planner

Search our weather history database for the weather conditions in past years. The results will help you decide how hot, cold, wet, or windy it might be!

Date:

Astronomy

Jul. 23, 2013 Rise Set
Actual Time 6:33 AM EDT 9:08 PM EDT
Civil Twilight 6:01 AM EDT 9:39 PM EDT
Nautical Twilight 5:22 AM EDT 10:18 PM EDT
Astronomical Twilight 4:38 AM EDT 11:03 PM EDT
Moon 9:35 PM EDT (7/23) 7:41 AM EDT (7/23)
Length of Visible Light 15h 37m
Length of Day
14h 34m
Full, 99% of the Moon is Illuminated
Jul 23
Full
Jul 29
Last Quarter
Aug 6
New
Aug 14
First Quarter
Aug 20
Full

Hourly Weather History & Observations

Time (EDT) Temp. Heat Index Dew Point Humidity Pressure Visibility Wind Dir Wind Speed Gust Speed Precip Events Conditions
12:58 AM 69.3 °F - 69.3 °F 100% 29.83 in 10.0 mi SSW 4.6 mph - N/A   Partly Cloudy
1:58 AM 68.9 °F - 68.9 °F 100% 29.83 in 10.0 mi SW 5.8 mph - N/A   Clear
2:58 AM 69.4 °F - 69.4 °F 100% 29.81 in 10.0 mi SW 6.9 mph - N/A   Clear
3:58 AM 70.0 °F - 70.0 °F 100% 29.80 in 10.0 mi WSW 10.4 mph - N/A   Partly Cloudy
4:51 AM 71.6 °F - 68.0 °F 88% 29.77 in 10.0 mi SSW 9.2 mph - N/A   Light Drizzle
4:58 AM 71.2 °F - 69.1 °F 93% 29.75 in 10.0 mi Variable 3.5 mph - 0.00 in   Light Drizzle
5:05 AM 69.8 °F - 68.0 °F 94% 29.74 in 10.0 mi South 8.1 mph - N/A   Clear
5:58 AM 69.8 °F - 68.0 °F 94% 29.75 in 10.0 mi Variable 1.2 mph - 0.00 in   Mostly Cloudy
6:58 AM 69.4 °F - 67.6 °F 94% 29.76 in 10.0 mi SW 8.1 mph - N/A   Partly Cloudy
7:58 AM 70.7 °F - 68.9 °F 94% 29.78 in 10.0 mi WSW 5.8 mph - N/A   Clear
8:58 AM 73.8 °F - 69.6 °F 87% 29.78 in 10.0 mi West 6.9 mph - N/A   Clear
9:58 AM 76.8 °F - 69.6 °F 78% 29.78 in 10.0 mi West 8.1 mph - N/A   Clear
10:30 AM 78.8 °F - 69.8 °F 74% 29.78 in 10.0 mi West 10.4 mph - N/A   Clear
10:58 AM 79.9 °F - 68.7 °F 69% 29.78 in 10.0 mi West 10.4 mph - N/A   Clear
11:58 AM 81.3 °F 84.3 °F 68.5 °F 65% 29.80 in 10.0 mi WNW 15.0 mph - N/A   Clear
12:58 PM 80.4 °F 83.1 °F 68.0 °F 66% 29.81 in 10.0 mi WNW 15.0 mph 19.6 mph N/A   Partly Cloudy
1:58 PM 81.7 °F 84.9 °F 68.9 °F 65% 29.79 in 10.0 mi WNW 16.1 mph - N/A   Partly Cloudy
2:58 PM 82.0 °F 85.5 °F 69.3 °F 65% 29.77 in 10.0 mi West 17.3 mph 23.0 mph N/A   Partly Cloudy
3:52 PM 84.2 °F 87.3 °F 68.0 °F 58% 29.77 in 10.0 mi NW 17.3 mph 23.0 mph N/A   Partly Cloudy
3:58 PM 83.1 °F 86.3 °F 68.4 °F 61% 29.76 in 10.0 mi NW 13.8 mph 23.0 mph N/A   Partly Cloudy
4:58 PM 80.8 °F 83.9 °F 69.3 °F 68% 29.78 in 10.0 mi NNW 16.1 mph 25.3 mph N/A   Partly Cloudy
5:58 PM 77.0 °F - 66.9 °F 71% 29.81 in 10.0 mi NNW 18.4 mph - N/A   Partly Cloudy
6:58 PM 74.7 °F - 63.1 °F 67% 29.82 in 10.0 mi NNW 16.1 mph - N/A   Clear
7:58 PM 70.9 °F - 59.5 °F 67% 29.83 in 10.0 mi North 11.5 mph - N/A   Clear
8:58 PM 68.7 °F - 58.5 °F 70% 29.85 in 10.0 mi NNW 8.1 mph - N/A   Clear
9:58 PM 65.8 °F - 57.2 °F 74% 29.87 in 10.0 mi NNW 8.1 mph - N/A   Clear
10:58 PM 63.3 °F - 55.8 °F 76% 29.89 in 10.0 mi NNW 9.2 mph - N/A   Clear
11:58 PM 60.8 °F - 54.0 °F 78% 29.92 in 10.0 mi NNW 8.1 mph - N/A   Clear